728  
NZUS99 KIND 201209  
HRRIND  
 
WEATHER ROUNDUP FOR INDIANA AND SURROUNDING STATES  
NATIONAL WEATHER SERVICE INDIANAPOLIS IN  
700 AM EST THU FEB 20 2020  
   
..INDIANA
 
 
 
CITY SKY/WX TMP DP RH WIND PRES REMARKS  
INDIANAPOLIS MOCLDY 24 12 60 N15 30.54S WCI 11  
6HR MIN TEMP: 24; 6HR MAX TEMP: 29;  
 
EAGLE CREEK FAIR 24 12 60 N9 30.55R WCI 14  
6HR MIN TEMP: 24; 6HR MAX TEMP: 29;  
 
ZIONSVILLE FAIR 21 15 78 N8 30.57R WCI 12  
6HR MIN TEMP: 21; 6HR MAX TEMP: 26;  
 
FISHERS CLOUDY 23 18 80 NE7 30.57 WCI 15  
ANDERSON MOCLDY 22 13 68 N9 30.56R WCI 12  
6HR MIN TEMP: 23; 6HR MAX TEMP: 27;  
 
SHELBYVILLE FAIR 26 13 57 N16G24 30.53R WCI 14  
6HR MIN TEMP: 26; 6HR MAX TEMP: 31;  
 

 
 
CITY SKY/WX TMP DP RH WIND PRES REMARKS  
LAFAYETTE CLOUDY 22 10 60 N9 30.61R WCI 12  
6HR MIN TEMP: 22; 6HR MAX TEMP: 25;  
 
KOKOMO MOCLDY 22 15 75 N7 30.58S WCI 13  
6HR MIN TEMP: 22; 6HR MAX TEMP: 24;  
 
FRANKFORT FAIR 25 13 62 N12 30.59S WCI 14  
6HR MIN TEMP: 25; 6HR MAX TEMP: 28;  
 
CRAWFORDSVILLE FAIR 21 13 70 N12 30.58R WCI 9  
6HR MIN TEMP: 21; 6HR MAX TEMP: 26;  
 
MUNCIE MOCLDY 24 14 65 N13 30.55R WCI 12  
6HR MIN TEMP: 24; 6HR MAX TEMP: 28;  
 
GREENCASTLE MOCLDY 24 13 65 N12 30.55S WCI 13  
TERRE HAUTE FAIR 26 14 60 N10 30.58R WCI 16  
6HR MIN TEMP: 26; 6HR MAX TEMP: 30;  
 
BLOOMINGTON MOCLDY 26 11 52 N8 30.52R WCI 18  
6HR MIN TEMP: 26; 6HR MAX TEMP: 30;  
 
COLUMBUS PTCLDY 25 14 63 N12 30.55 WCI 14  
BEDFORD N/A 28 18 64 N5 30.52R WCI 23  
SEYMOUR FAIR 30 18 59 N13 30.54R WCI 20  
NORTH VERNON FAIR 25 14 63 N12G18 30.51R WCI 14  

 
 
CITY SKY/WX TMP DP RH WIND PRES REMARKS  
GARY MOCLDY 18 3 53 NW12 30.66R WCI 5  
VALPARAISO CLOUDY 19 7 59 NW8 30.62R WCI 9  
6HR MIN TEMP: 19; 6HR MAX TEMP: 22;  
 
LA PORTE CLOUDY 19 10 68 NW9 30.61R WCI 9  
6HR MIN TEMP: 19; 6HR MAX TEMP: 22;  
 
MICHIGAN CITY FAIR 19 14 79 NW5 30.62R WCI 13  
SOUTH BEND CLOUDY 20 9 62 NW6 30.60R WCI 12  
6HR MIN TEMP: 17; 6HR MAX TEMP: 22;  
 
ELKHART FAIR 19 10 68 E5 30.59 WCI 13  
GOSHEN CLOUDY 20 12 71 NE7 30.59R WCI 11  
6HR MIN TEMP: 19; 6HR MAX TEMP: 21;  
 
KENDALLVILLE CLOUDY 17 8 67 N5 30.57R WCI 10  
AUBURN CLOUDY 19 12 73 N5 30.58R WCI 13  
RENSSELAER CLOUDY 19 10 68 NW9 30.63S WCI 9  
KNOX CLOUDY 21 12 68 NW12 30.61R WCI 9  
PLYMOUTH CLOUDY 21 12 68 N7 30.59R WCI 13  
ROCHESTER FAIR 23 14 68 W3 30.59R  
WARSAW CLOUDY 21 12 68 N8 30.58R WCI 12  
FORT WAYNE CLOUDY 21 12 68 N7 30.57S WCI 12  
6HR MIN TEMP: 20; 6HR MAX TEMP: 22;  
 
MONTICELLO MOCLDY 21 9 60 N13 30.60S WCI 8  
6HR MIN TEMP: 20; 6HR MAX TEMP: 23;  
 
LOGANSPORT MOCLDY 21 14 73 N8 30.60R WCI 12  
PERU/GRISSOM CLOUDY 21 15 75 N7 30.57S WCI 13  
6HR MIN TEMP: 21; 6HR MAX TEMP: 23;  
 
HUNTINGTON N/A 20 11 68 N6 30.57S WCI 13  
6HR MIN TEMP: 20; 6HR MAX TEMP: 22;  
 
MARION FAIR 21 16 79 N6 30.58R WCI 14  
PORTLAND FAIR 23 10 58 N7 30.55S WCI 15  
RICHMOND FAIR 21 16 79 N12 30.51S WCI 9  
BATESVILLE CLOUDY 25 14 63 VRB5G12 30.51R WCI 19  
WASHINGTON FAIR 29 21 71 N10 30.55R WCI 20  
6HR MIN TEMP: 29; 6HR MAX TEMP: 32;  
 
FRENCH LICK MOCLDY 30 21 69 N6 30.51R WCI 24  
MADISON FAIR 30 21 69 N6 30.53R WCI 24  
HUNTINGBURG CLOUDY 32 24 72 N7 30.52R WCI 26  
6HR MIN TEMP: 32; 6HR MAX TEMP: 35;  
 
JEFFERSONVILLE FAIR 32 26 78 N9 30.51R WCI 24  
6HR MIN TEMP: 32; 6HR MAX TEMP: 34;  
 
EVANSVILLE CLOUDY 31 21 66 N13 30.54R WCI 21  
6HR MIN TEMP: 31; 6HR MAX TEMP: 35;  
 

 
   
..ILLINOIS
 
 
 
CITY SKY/WX TMP DP RH WIND PRES REMARKS  
CHICAGO FAIR 10 -4 53 NW8 30.66R WCI -2  
MOLINE FAIR 10 -1 61 N3 30.73R  
ROCKFORD FAIR 6 -5 60 NW7 30.71R WCI -6  
KANKAKEE CLOUDY 19 3 50 N10 30.66R WCI 7  
PEORIA FAIR 15 2 56 N8 30.69R WCI 4  
BLOOMINGTON FAIR 15 6 67 N13 30.65R WCI 1  
CHAMPAIGN CLOUDY 20 11 68 N13 30.61R WCI 7  
RANTOUL MOCLDY 19 12 73 N12 30.62R WCI 7  
DANVILLE FAIR 21 11 65 N12 30.59R WCI 9  
QUINCY CLOUDY 18 6 59 N16 30.67R WCI 3  
SPRINGFIELD FAIR 20 9 62 N13 30.65R WCI 7  
DECATUR CLOUDY 21 9 59 N14 30.63R WCI 8  
MATTOON CLOUDY 23 15 71 N18 30.59R WCI 9  
PARIS MOCLDY 26 16 66 CALM 30.60S  
EFFINGHAM FAIR 26 -6 24 N12 30.61R WCI 15  
ROBINSON FAIR 26 18 72 N12G18 30.59R WCI 16  
OLNEY FAIR 32 24 71 N10 30.59R WCI 24  
LAWRENCEVILLE FAIR 28 20 71 N10 30.57R WCI 19  
MOUNT VERNON FAIR 29 21 72 N10G16 30.59R WCI 20  
FAIRFIELD FAIR 29 20 69 N6 30.56R WCI 23  
MOUNT CARMEL FAIR 28 18 65 N8 30.56R WCI 20  
CARMI MOCLDY 30 23 74 N12G18 30.55R WCI 21  

 
   
..KENTUCKY
 
 
 
CITY SKY/WX TMP DP RH WIND PRES REMARKS  
LOUISVILLE CLOUDY 34 23 64 N8 30.49S WCI 27  
PADUCAH CLOUDY 35 25 66 N13 30.49R WCI 26  
OWENSBORO CLOUDY 34 24 67 N8 30.51R WCI 27  
FORT KNOX FAIR 32 23 68 N7 30.47S WCI 26  
LEXINGTON CLOUDY 31 22 69 N12 30.46R WCI 22  
BOWLING GREEN CLOUDY 39 24 55 N7 30.45R WCI 34  
JACKSON CLOUDY 35 21 56 CALM 30.40S  

 
   
..OHIO
 
 
 
CITY SKY/WX TMP DP RH WIND PRES REMARKS  
CINCINNATI CLOUDY 28 20 71 N13 30.49R WCI 17  
DAYTON CLOUDY 23 12 62 N12 30.52R WCI 12  
TOLEDO CLOUDY 19 4 51 NW12 30.57R WCI 7  
DEFIANCE CLOUDY 20 8 60 N7 30.59R WCI 11  
FINDLAY CLOUDY 20 9 62 N14 30.54S WCI 7  
LIMA CLOUDY 20 11 68 N9 30.54R WCI 9  
WRIGHT-PAT AFB CLOUDY 24 9 53 N8 30.51R WCI 14  
COLUMBUS CLOUDY 25 12 58 N13 30.50R WCI 14  
CLEVELAND CLOUDY 24 11 57 N9 30.53R WCI 14  

 
   
..MICHIGAN
 
 
 
CITY SKY/WX TMP DP RH WIND PRES REMARKS  
DETROIT CLOUDY 17 5 59 NW9 30.56S WCI 6  
GRAND RAPIDS MOCLDY 16 3 56 NW6 30.58R WCI 7  
LANSING CLOUDY 10 4 76 CALM 30.57R  
KALAMAZOO MOCLDY 15 6 67 CALM 30.58R  
BATTLE CREEK MOCLDY 12 8 84 CALM 30.57R  
MARSHALL FAIR 9 4 81 CALM 30.56R  
JACKSON FAIR 13 4 67 CALM 30.55R  
BENTON HARBOR CLOUDY 22 8 55 VRB5 30.60R WCI 16  
STURGIS CLOUDY 15 9 74 CALM 30.57R  
COLDWATER FAIR 12 7 79 CALM 30.57R  
HILLSDALE MOCLDY 13 5 70 CALM 30.53R  

 
   
..OTHER LOCATIONS
 
 
 
CITY SKY/WX TMP DP RH WIND PRES REMARKS  
SAINT LOUIS MO MOCLDY 27 18 69 N14G21 30.62S WCI 16  
CAPE GIRARDEAU CLOUDY 34 26 72 N17G25 30.52R WCI 23  
MILWAUKEE WI FAIR 6 -8 52 NW8 30.66R WCI -7  
NASHVILLE TN CLOUDY 41 24 51 N10 30.38S  

 
 
 
 
CLICK HERE TO GO TO PREVIOUS BULLETINS.

The Nexlab IN Page Main Text Page